Regional Weather Roundup
Issued by NWS

Home | Current Version | Previous Version | Text Only | Print | Product List | Glossary On
Versions: 1 2 3 4 5 6 7 8 9 10 11 12 13 14 15 16 17 18 19 20 21 22 23 24 25 26 27 28 29 30 31 32 33 34 35 36 37 38 39 40 41 42 43 44 45 46 47 48 49 50
000
ASUS44 KOUN 032110
RWROK

WEATHER ROUNDUP FOR OKLAHOMA
NATIONAL WEATHER SERVICE NORMAN OK
400 PM CDT MON AUG 03 2015

NOTE: "FAIR" INDICATES FEW OR NO CLOUDS BELOW 12,000 FEET WITH NO
      SIGNIFICANT WEATHER AND/OR OBSTRUCTIONS TO VISIBILITY.

OKZ001>007-009>012-014-015-017-032200-
NORTHWEST OKLAHOMA AND THE PANHANDLE

CITY           SKY/WX    TMP DP  RH WIND       PRES   REMARKS
GAGE           CLOUDY    88  65  46 S14       29.95F HX  90
GUYMON         SUNNY     88  67  49 S15       29.96F HX  91
ENID/WOODRING  PTSUNNY   95  64  36 S12       29.90F HX  97
$$

OKZ016-021>023-033>039-044-045-032200-
SOUTHWEST OKLAHOMA

CITY           SKY/WX    TMP DP  RH WIND       PRES   REMARKS
LAWTON/REGL    CLOUDY    86  68  54 SE7       29.93F
LAWTON/FT SILL CLOUDY    85  69  59 SE7       29.92F
FREDERICK      MOSUNNY   88  71  57 S9        29.90F HX  94
CLINTON        PTSUNNY   86  67  52 S10       29.97F
HOBART         PTSUNNY   88  69  53 S12       29.95F HX  92
ALTUS AFB      SUNNY     87  71  58 SE13      29.92F HX  92
$$

OKZ018>020-024>031-032200-
CENTRAL OKLAHOMA

CITY           SKY/WX    TMP DP  RH WIND       PRES   REMARKS
OKLAHOMA CITY  PTSUNNY   83  68  60 S7        29.94F
OKC/WILEY POST PTSUNNY   85  67  54 S10       29.95F
OKC/TINKER AFB CLOUDY    83  67  56 S9        29.94F
STILLWATER     MOSUNNY   94  63  35 S12       29.92F HX  95
GUTHRIE        MOSUNNY   91  65  41 S12       29.93F HX  93
$$

OKZ008-013-054>072-032200-
NORTHEAST OKLAHOMA

CITY           SKY/WX    TMP DP  RH WIND       PRES   REMARKS
TULSA          CLOUDY    93  66  40 SE9       29.91F HX  96
TULSA/JONES    CLOUDY    93  65  39 S7        29.93F HX  95
PONCA CITY     PTSUNNY   92  68  45 SE9       29.91F HX  96
BARTLESVILLE   PTSUNNY   95  67  39 S8        29.93F HX  99
MUSKOGEE       CLOUDY    89  70  53 CALM      29.95F HX  94
$$

OKZ032-040>043-046>053-073>077-032200-
SOUTH CENTRAL/SOUTHEAST OKLAHOMA

CITY           SKY/WX    TMP DP  RH WIND       PRES   REMARKS
ARDMORE/DWNTWN CLOUDY    90  61  37 CALM      29.90F
MCALESTER      MOSUNNY   94  59  31 CALM      29.93F HX  93
$$




USA.gov is the U.S. government's official web portal to all federal, state and local government web resources and services.